TimeCST,TemperatureF,Dew PointF,Humidity,Sea Level PressureIn,VisibilityMPH,Wind Direction,Wind SpeedMPH,Gust SpeedMPH,PrecipitationIn,Events,Conditions,WindDirDegrees,DateUTC
12:53 AM,42.1,33.1,70,30.31,10.0,Calm,Calm,-,N/A,,Clear,0,2013-02-20 06:53:00
1:53 AM,41.0,36.0,82,30.31,10.0,Calm,Calm,-,N/A,,Clear,0,2013-02-20 07:53:00
2:53 AM,43.0,32.0,65,30.26,10.0,ENE,5.8,-,N/A,,Clear,70,2013-02-20 08:53:00
3:53 AM,44.1,28.9,55,30.23,10.0,NE,8.1,-,N/A,,Clear,40,2013-02-20 09:53:00
4:53 AM,45.0,26.1,48,30.24,10.0,NE,8.1,-,N/A,,Mostly Cloudy,40,2013-02-20 10:53:00
5:53 AM,43.0,30.0,60,30.27,10.0,ENE,4.6,-,N/A,,Clear,70,2013-02-20 11:53:00
6:53 AM,43.0,28.9,58,30.28,10.0,NE,4.6,-,N/A,,Clear,40,2013-02-20 12:53:00
7:53 AM,45.0,28.9,53,30.31,10.0,NE,8.1,-,N/A,,Clear,50,2013-02-20 13:53:00
8:53 AM,46.0,30.0,54,30.30,10.0,ENE,9.2,-,N/A,,Clear,60,2013-02-20 14:53:00
10:53 AM,46.9,23.0,39,30.29,10.0,East,11.5,-,N/A,,Mostly Cloudy,80,2013-02-20 16:53:00
11:53 AM,48.0,23.0,37,30.26,10.0,ENE,11.5,-,N/A,,Clear,70,2013-02-20 17:53:00
12:53 PM,48.0,24.1,39,30.23,10.0,ESE,10.4,-,N/A,,Clear,120,2013-02-20 18:53:00
1:53 PM,53.1,24.1,32,30.20,10.0,East,11.5,-,N/A,,Clear,100,2013-02-20 19:53:00
2:53 PM,55.0,19.0,24,30.21,10.0,ENE,5.8,-,N/A,,Clear,60,2013-02-20 20:53:00
3:53 PM,54.0,21.9,29,30.16,10.0,East,9.2,-,N/A,,Overcast,80,2013-02-20 21:53:00
4:53 PM,53.1,24.1,32,30.14,10.0,ESE,13.8,-,N/A,,Scattered Clouds,110,2013-02-20 22:53:00
5:53 PM,51.1,26.1,38,30.13,10.0,ENE,8.1,-,N/A,,Mostly Cloudy,70,2013-02-20 23:53:00
6:53 PM,51.1,28.0,41,30.14,10.0,ENE,6.9,-,N/A,,Overcast,60,2013-02-21 00:53:00
7:53 PM,50.0,24.1,36,30.14,10.0,ENE,6.9,-,N/A,,Mostly Cloudy,70,2013-02-21 01:53:00
8:53 PM,50.0,25.0,38,30.13,10.0,East,9.2,-,N/A,,Overcast,90,2013-02-21 02:53:00
9:53 PM,48.0,27.0,44,30.13,10.0,ENE,9.2,-,N/A,,Mostly Cloudy,70,2013-02-21 03:53:00
10:53 PM,48.9,25.0,39,30.09,10.0,East,12.7,19.6,N/A,,Overcast,100,2013-02-21 04:53:00
11:53 PM,48.0,28.0,46,30.09,10.0,ESE,10.4,-,N/A,,Overcast,110,2013-02-21 05:53:00